Tracking 19489 objects as of 23-Jan-2019
HD Live streaming from Space Station
objects crossing your sky now

FENGYUN 1C DEB

Track FENGYUN 1C DEB now!
10-day predictions


NORAD ID: 31729
Int'l Code: 1999-025CEC
Perigee: 825.7 km
Apogee: 947.5 km
Inclination: 99.2 °
Period: 102.6 minutes
Semi major axis: 7257 km
RCS: 0.0123 m2 (small)
Launch date: May 10, 1999
Source: People's Republic of China (PRC)
Launch site: Taiyaun Space Center, China (TSC)

Note: This is SATELLITE DEBRIS
aabbcc
Your satellite tracking list
Your tracking list is empty




NASA's NSSDC Master Catalog

Two Line Element Set (TLE):
1 31729U 99025CEC 19021.03473751 +.00000726 +00000-0 +47158-3 0  9993
2 31729 099.2480 118.2264 0083906 084.1014 276.9708 14.04141191593387
Source of the keplerian elements: AFSPC